Wetterdaten: Samstag, 11.05.2013
Datum Zeit Temperatur Luftfeuchte Luftdruck Regen Wind Richtung Richtung Taupunkt Windchill Windben
11.05.2013 00:00 7,6 C 96 % 1019,8 hPa 0,0 l/m 0,0 km/h (0 Bft) O-SO 112 7,0 C 7,5 C 0,0 km/h (0 Bft)
11.05.2013 00:05 7,6 C 96 % 1019,5 hPa 0,0 l/m 0,2 km/h (0 Bft) SO 135 7,0 C 7,5 C 0,0 km/h (0 Bft)
11.05.2013 00:10 7,5 C 96 % 1019,5 hPa 0,0 l/m 0,2 km/h (0 Bft) O-NO 67 6,9 C 7,4 C 0,0 km/h (0 Bft)
11.05.2013 00:15 7,4 C 96 % 1019,5 hPa 0,0 l/m 0,0 km/h (0 Bft) O-NO 67 6,8 C 7,4 C 0,0 km/h (0 Bft)
11.05.2013 00:20 7,4 C 96 % 1019,5 hPa 0,0 l/m 0,0 km/h (0 Bft) W-SW 247 6,8 C 7,3 C 0,0 km/h (0 Bft)
11.05.2013 00:25 7,3 C 96 % 1019,5 hPa 0,0 l/m 0,0 km/h (0 Bft) S-SO 157 6,7 C 7,2 C 0,0 km/h (0 Bft)
11.05.2013 00:30 7,3 C 96 % 1019,5 hPa 0,0 l/m 0,2 km/h (0 Bft) S-SO 157 6,7 C 7,2 C 1,6 km/h (1 Bft)
11.05.2013 00:35 7,3 C 96 % 1019,5 hPa 0,0 l/m 0,3 km/h (0 Bft) SW 225 6,7 C 7,2 C 1,6 km/h (1 Bft)
11.05.2013 00:40 7,2 C 96 % 1019,5 hPa 0,0 l/m 0,3 km/h (0 Bft) SO 135 6,6 C 7,2 C 0,0 km/h (0 Bft)
11.05.2013 00:45 7,1 C 96 % 1019,6 hPa 0,0 l/m 0,2 km/h (0 Bft) NO 45 6,5 C 7,1 C 0,0 km/h (0 Bft)
11.05.2013 00:50 7,0 C 96 % 1019,6 hPa 0,0 l/m 0,0 km/h (0 Bft) NO 45 6,4 C 7,0 C 0,0 km/h (0 Bft)
11.05.2013 00:55 7,0 C 96 % 1019,6 hPa 0,0 l/m 0,2 km/h (0 Bft) W-SW 247 6,4 C 7,0 C 2,3 km/h (1 Bft)
11.05.2013 01:00 7,0 C 96 % 1019,6 hPa 0,0 l/m 0,2 km/h (0 Bft) S-SO 157 6,4 C 7,0 C 3,7 km/h (1 Bft)
11.05.2013 01:05 7,1 C 96 % 1019,3 hPa 0,0 l/m 0,5 km/h (0 Bft) O-NO 67 6,5 C 7,0 C 0,0 km/h (0 Bft)
11.05.2013 01:10 7,0 C 96 % 1019,3 hPa 0,0 l/m 0,3 km/h (0 Bft) O 90 6,4 C 7,0 C 0,0 km/h (0 Bft)
11.05.2013 01:15 7,0 C 96 % 1019,3 hPa 0,0 l/m 0,0 km/h (0 Bft) O-NO 67 6,4 C 7,0 C 0,0 km/h (0 Bft)
11.05.2013 01:20 7,0 C 96 % 1019,3 hPa 0,0 l/m 0,0 km/h (0 Bft) SO 135 6,4 C 6,9 C 0,0 km/h (0 Bft)
11.05.2013 01:25 7,0 C 96 % 1019,2 hPa 0,0 l/m 0,2 km/h (0 Bft) W-SW 247 6,4 C 6,9 C 0,0 km/h (0 Bft)
11.05.2013 01:30 7,0 C 96 % 1019,2 hPa 0,0 l/m 0,2 km/h (0 Bft) NO 45 6,4 C 6,9 C 0,0 km/h (0 Bft)
11.05.2013 01:35 7,0 C 96 % 1019,2 hPa 0,0 l/m 0,0 km/h (0 Bft) O 90 6,4 C 6,9 C 0,0 km/h (0 Bft)
11.05.2013 01:40 7,0 C 96 % 1019,2 hPa 0,0 l/m 0,0 km/h (0 Bft) SO 135 6,4 C 6,9 C 2,3 km/h (1 Bft)
11.05.2013 01:45 7,0 C 96 % 1019,1 hPa 0,0 l/m 0,2 km/h (0 Bft) O-NO 67 6,4 C 6,9 C 0,0 km/h (0 Bft)
11.05.2013 01:50 7,0 C 96 % 1019,1 hPa 0,0 l/m 1,3 km/h (1 Bft) S-SW 202 6,4 C 6,9 C 7,1 km/h (2 Bft)
11.05.2013 01:55 7,0 C 96 % 1019,1 hPa 0,0 l/m 1,1 km/h (1 Bft) O-SO 112 6,4 C 6,9 C 0,0 km/h (0 Bft)
11.05.2013 02:00 7,0 C 96 % 1019,1 hPa 0,0 l/m 0,3 km/h (0 Bft) NO 45 6,4 C 6,9 C 0,0 km/h (0 Bft)
11.05.2013 02:05 7,0 C 96 % 1019,1 hPa 0,0 l/m 0,2 km/h (0 Bft) NO 45 6,4 C 6,9 C 0,0 km/h (0 Bft)
11.05.2013 02:10 7,0 C 96 % 1019,1 hPa 0,0 l/m 0,2 km/h (0 Bft) N-NO 22 6,4 C 6,9 C 0,0 km/h (0 Bft)
11.05.2013 02:15 7,0 C 96 % 1019,1 hPa 0,0 l/m 0,6 km/h (0 Bft) NO 45 6,4 C 6,9 C 0,0 km/h (0 Bft)
11.05.2013 02:20 6,9 C 96 % 1019,1 hPa 0,0 l/m 1,1 km/h (1 Bft) S-SO 157 6,3 C 6,9 C 0,0 km/h (0 Bft)
11.05.2013 02:25 6,9 C 96 % 1018,8 hPa 0,0 l/m 0,6 km/h (0 Bft) O 90 6,3 C 6,9 C 2,1 km/h (1 Bft)
11.05.2013 02:30 6,8 C 96 % 1018,8 hPa 0,0 l/m 0,2 km/h (0 Bft) NO 45 6,2 C 6,9 C 0,0 km/h (0 Bft)
11.05.2013 02:35 6,8 C 96 % 1018,8 hPa 0,0 l/m 0,6 km/h (0 Bft) O-NO 67 6,2 C 6,9 C 0,0 km/h (0 Bft)
11.05.2013 02:40 6,8 C 96 % 1018,8 hPa 0,0 l/m 0,8 km/h (0 Bft) W 270 6,2 C 6,9 C 1,6 km/h (1 Bft)
11.05.2013 02:45 6,8 C 96 % 1018,7 hPa 0,0 l/m 0,6 km/h (0 Bft) N-NO 22 6,2 C 6,9 C 1,6 km/h (1 Bft)
11.05.2013 02:50 6,8 C 96 % 1018,7 hPa 0,0 l/m 0,6 km/h (0 Bft) N-NO 22 6,2 C 6,9 C 0,0 km/h (0 Bft)
11.05.2013 02:55 6,9 C 96 % 1018,7 hPa 0,0 l/m 0,5 km/h (0 Bft) W-SW 247 6,3 C 6,9 C 0,0 km/h (0 Bft)
11.05.2013 03:00 6,9 C 96 % 1018,7 hPa 0,0 l/m 0,0 km/h (0 Bft) O 90 6,3 C 6,9 C 1,6 km/h (1 Bft)
11.05.2013 03:05 6,9 C 96 % 1018,4 hPa 0,0 l/m 0,0 km/h (0 Bft) NO 45 6,3 C 6,9 C 0,0 km/h (0 Bft)
11.05.2013 03:10 7,0 C 96 % 1018,4 hPa 0,0 l/m 1,3 km/h (1 Bft) S 180 6,4 C 6,9 C 7,9 km/h (2 Bft)
11.05.2013 03:15 7,0 C 96 % 1018,4 hPa 0,0 l/m 2,7 km/h (1 Bft) S 180 6,4 C 7,0 C 4,7 km/h (1 Bft)
11.05.2013 03:20 7,0 C 96 % 1018,4 hPa 0,0 l/m 3,2 km/h (1 Bft) S-SO 157 6,4 C 7,1 C 3,2 km/h (1 Bft)
11.05.2013 03:25 7,0 C 96 % 1018,5 hPa 0,0 l/m 2,4 km/h (1 Bft) O 90 6,4 C 7,1 C 2,1 km/h (1 Bft)
11.05.2013 03:30 7,0 C 96 % 1018,5 hPa 0,0 l/m 1,9 km/h (1 Bft) O-SO 112 6,4 C 7,0 C 2,9 km/h (1 Bft)
11.05.2013 03:35 7,0 C 96 % 1018,5 hPa 0,0 l/m 1,0 km/h (0 Bft) O-SO 112 6,4 C 7,0 C 0,0 km/h (0 Bft)
11.05.2013 03:40 7,0 C 96 % 1018,5 hPa 0,0 l/m 0,5 km/h (0 Bft) O-NO 67 6,4 C 6,9 C 0,0 km/h (0 Bft)
11.05.2013 03:45 7,0 C 96 % 1018,3 hPa 0,0 l/m 1,0 km/h (0 Bft) O-NO 67 6,4 C 6,9 C 3,2 km/h (1 Bft)
11.05.2013 03:50 7,0 C 96 % 1018,3 hPa 0,0 l/m 1,3 km/h (1 Bft) O 90 6,4 C 6,9 C 0,0 km/h (0 Bft)
11.05.2013 03:55 7,0 C 96 % 1018,3 hPa 0,0 l/m 1,6 km/h (1 Bft) O-SO 112 6,4 C 6,9 C 2,7 km/h (1 Bft)
11.05.2013 04:00 7,0 C 96 % 1018,3 hPa 0,0 l/m 1,8 km/h (1 Bft) O 90 6,4 C 6,9 C 2,3 km/h (1 Bft)
11.05.2013 04:05 6,9 C 96 % 1018,2 hPa 0,0 l/m 1,8 km/h (1 Bft) O-SO 112 6,3 C 6,9 C 2,6 km/h (1 Bft)
11.05.2013 04:10 6,9 C 96 % 1018,2 hPa 0,0 l/m 0,6 km/h (0 Bft) NO 45 6,3 C 6,9 C 0,0 km/h (0 Bft)
11.05.2013 04:15 6,9 C 96 % 1018,2 hPa 0,0 l/m 0,3 km/h (0 Bft) SO 135 6,3 C 6,9 C 1,6 km/h (1 Bft)
11.05.2013 04:20 6,9 C 96 % 1018,2 hPa 0,0 l/m 0,3 km/h (0 Bft) SO 135 6,3 C 6,8 C 0,0 km/h (0 Bft)
11.05.2013 04:25 6,9 C 96 % 1017,9 hPa 0,0 l/m 0,3 km/h (0 Bft) S-SO 157 6,3 C 6,8 C 0,0 km/h (0 Bft)
11.05.2013 04:30 6,9 C 96 % 1017,9 hPa 0,0 l/m 0,2 km/h (0 Bft) NO 45 6,3 C 6,8 C 1,6 km/h (1 Bft)
11.05.2013 04:35 6,8 C 96 % 1017,9 hPa 0,0 l/m 0,3 km/h (0 Bft) O 90 6,2 C 6,8 C 1,9 km/h (1 Bft)
11.05.2013 04:40 6,9 C 96 % 1017,9 hPa 0,0 l/m 0,6 km/h (0 Bft) O 90 6,3 C 6,8 C 0,0 km/h (0 Bft)
11.05.2013 04:45 6,9 C 96 % 1017,8 hPa 0,0 l/m 1,3 km/h (1 Bft) NO 45 6,3 C 6,8 C 3,7 km/h (1 Bft)
11.05.2013 04:50 6,9 C 96 % 1017,8 hPa 0,0 l/m 2,1 km/h (1 Bft) NO 45 6,3 C 6,9 C 2,9 km/h (1 Bft)
11.05.2013 04:55 6,9 C 96 % 1017,8 hPa 0,0 l/m 2,3 km/h (1 Bft) O-NO 67 6,3 C 6,9 C 1,8 km/h (1 Bft)
11.05.2013 05:00 6,9 C 96 % 1017,8 hPa 0,0 l/m 1,0 km/h (0 Bft) NO 45 6,3 C 6,9 C 0,0 km/h (0 Bft)
11.05.2013 05:05 6,9 C 96 % 1017,6 hPa 0,0 l/m 0,3 km/h (0 Bft) O 90 6,3 C 6,8 C 0,0 km/h (0 Bft)
11.05.2013 05:10 6,9 C 96 % 1017,6 hPa 0,0 l/m 0,0 km/h (0 Bft) O 90 6,3 C 6,8 C 0,0 km/h (0 Bft)
11.05.2013 05:15 6,8 C 96 % 1017,6 hPa 0,0 l/m 0,0 km/h (0 Bft) O-SO 112 6,2 C 6,8 C 0,0 km/h (0 Bft)
11.05.2013 05:20 6,8 C 96 % 1017,6 hPa 0,0 l/m 0,0 km/h (0 Bft) O-SO 112 6,2 C 6,8 C 0,0 km/h (0 Bft)
11.05.2013 05:25 6,9 C 96 % 1017,5 hPa 0,0 l/m 0,0 km/h (0 Bft) O 90 6,3 C 6,8 C 0,0 km/h (0 Bft)
11.05.2013 05:30 6,9 C 96 % 1017,5 hPa 0,0 l/m 0,0 km/h (0 Bft) S 180 6,3 C 6,8 C 0,0 km/h (0 Bft)
11.05.2013 05:35 6,9 C 96 % 1017,5 hPa 0,0 l/m 0,0 km/h (0 Bft) O 90 6,3 C 6,8 C 0,0 km/h (0 Bft)
11.05.2013 05:40 6,9 C 96 % 1017,5 hPa 0,0 l/m 0,0 km/h (0 Bft) O-NO 67 6,3 C 6,9 C 0,0 km/h (0 Bft)
11.05.2013 05:45 7,0 C 96 % 1017,5 hPa 0,0 l/m 0,0 km/h (0 Bft) NO 45 6,4 C 6,9 C 0,0 km/h (0 Bft)
11.05.2013 05:50 7,0 C 96 % 1017,5 hPa 0,0 l/m 0,0 km/h (0 Bft) O 90 6,4 C 6,9 C 0,0 km/h (0 Bft)
11.05.2013 05:55 7,0 C 96 % 1017,5 hPa 0,0 l/m 0,0 km/h (0 Bft) O 90 6,4 C 6,9 C 0,0 km/h (0 Bft)
11.05.2013 06:00 7,0 C 96 % 1017,5 hPa 0,0 l/m 0,0 km/h (0 Bft) O-SO 112 6,4 C 6,9 C 0,0 km/h (0 Bft)
11.05.2013 06:05 7,0 C 96 % 1017,2 hPa 0,0 l/m 0,0 km/h (0 Bft) SO 135 6,4 C 6,9 C 0,0 km/h (0 Bft)
11.05.2013 06:10 6,9 C 96 % 1017,2 hPa 0,0 l/m 0,0 km/h (0 Bft) O 90 6,3 C 6,9 C 0,0 km/h (0 Bft)
11.05.2013 06:15 7,0 C 96 % 1017,2 hPa 0,0 l/m 0,0 km/h (0 Bft) NO 45 6,4 C 6,9 C 0,0 km/h (0 Bft)
11.05.2013 06:20 7,0 C 96 % 1017,2 hPa 0,0 l/m 0,0 km/h (0 Bft) O 90 6,4 C 6,9 C 0,0 km/h (0 Bft)
11.05.2013 06:25 7,0 C 96 % 1017,4 hPa 0,0 l/m 0,0 km/h (0 Bft) O 90 6,4 C 6,9 C 0,0 km/h (0 Bft)
11.05.2013 06:30 7,0 C 96 % 1017,4 hPa 0,0 l/m 0,0 km/h (0 Bft) O-NO 67 6,4 C 6,9 C 0,0 km/h (0 Bft)
11.05.2013 06:35 7,0 C 96 % 1017,4 hPa 0,0 l/m 0,2 km/h (0 Bft) O 90 6,4 C 6,9 C 0,0 km/h (0 Bft)
11.05.2013 06:40 7,1 C 96 % 1017,4 hPa 0,0 l/m 0,2 km/h (0 Bft) O-SO 112 6,5 C 6,9 C 0,0 km/h (0 Bft)
11.05.2013 06:45 7,1 C 96 % 1017,4 hPa 0,0 l/m 0,0 km/h (0 Bft) S 180 6,5 C 7,0 C 0,0 km/h (0 Bft)
11.05.2013 06:50 7,2 C 96 % 1017,4 hPa 0,0 l/m 0,0 km/h (0 Bft) S 180 6,6 C 7,1 C 0,0 km/h (0 Bft)
11.05.2013 06:55 7,2 C 96 % 1017,4 hPa 0,7 l/m 0,0 km/h (0 Bft) W-SW 247 6,6 C 7,1 C 0,0 km/h (0 Bft)
11.05.2013 07:00 7,3 C 96 % 1017,4 hPa 0,0 l/m 0,0 km/h (0 Bft) S-SO 157 6,7 C 7,2 C 0,0 km/h (0 Bft)
11.05.2013 07:05 7,3 C 96 % 1017,8 hPa 0,0 l/m 0,0 km/h (0 Bft) SO 135 6,7 C 7,2 C 0,0 km/h (0 Bft)
11.05.2013 07:10 7,3 C 96 % 1017,8 hPa 0,0 l/m 0,0 km/h (0 Bft) S 180 6,7 C 7,2 C 0,0 km/h (0 Bft)
11.05.2013 07:15 7,4 C 96 % 1017,8 hPa 0,0 l/m 0,0 km/h (0 Bft) S 180 6,8 C 7,3 C 1,6 km/h (1 Bft)
11.05.2013 07:20 7,5 C 96 % 1017,8 hPa 0,0 l/m 0,5 km/h (0 Bft) S-SO 157 6,9 C 7,4 C 0,0 km/h (0 Bft)
11.05.2013 07:25 7,6 C 96 % 1017,9 hPa 0,0 l/m 0,5 km/h (0 Bft) S-SW 202 7,0 C 7,5 C 1,6 km/h (1 Bft)
11.05.2013 07:30 7,6 C 96 % 1017,9 hPa 0,0 l/m 0,2 km/h (0 Bft) S-SW 202 7,0 C 7,5 C 0,0 km/h (0 Bft)
11.05.2013 07:35 7,6 C 96 % 1017,9 hPa 0,0 l/m 0,2 km/h (0 Bft) SW 225 7,0 C 7,5 C 0,0 km/h (0 Bft)
11.05.2013 07:40 7,6 C 96 % 1017,9 hPa 0,0 l/m 0,0 km/h (0 Bft) W 270 7,0 C 7,5 C 0,0 km/h (0 Bft)
11.05.2013 07:45 7,6 C 96 % 1018,1 hPa 0,0 l/m 0,0 km/h (0 Bft) W-SW 247 7,0 C 7,5 C 1,9 km/h (1 Bft)
11.05.2013 07:50 7,6 C 96 % 1018,1 hPa 0,0 l/m 0,3 km/h (0 Bft) W-SW 247 7,0 C 7,5 C 0,0 km/h (0 Bft)
11.05.2013 07:55 7,5 C 96 % 1018,1 hPa 0,0 l/m 0,6 km/h (0 Bft) W-SW 247 6,9 C 7,5 C 0,0 km/h (0 Bft)
11.05.2013 08:00 7,5 C 96 % 1018,1 hPa 0,0 l/m 1,3 km/h (1 Bft) S 180 6,9 C 7,5 C 2,6 km/h (1 Bft)
11.05.2013 08:05 7,5 C 96 % 1018,1 hPa 0,0 l/m 1,8 km/h (1 Bft) S 180 6,9 C 7,5 C 2,7 km/h (1 Bft)
11.05.2013 08:10 7,6 C 96 % 1018,1 hPa 0,0 l/m 2,3 km/h (1 Bft) NO 45 7,0 C 7,5 C 2,3 km/h (1 Bft)
11.05.2013 08:15 7,5 C 96 % 1018,1 hPa 0,0 l/m 2,7 km/h (1 Bft) W-NW 292 6,9 C 7,5 C 3,4 km/h (1 Bft)
11.05.2013 08:20 7,5 C 96 % 1018,1 hPa 0,0 l/m 2,1 km/h (1 Bft) W-NW 292 6,9 C 7,5 C 3,1 km/h (1 Bft)
11.05.2013 08:25 7,5 C 96 % 1018,0 hPa 0,0 l/m 2,4 km/h (1 Bft) W-SW 247 6,9 C 7,5 C 2,9 km/h (1 Bft)
11.05.2013 08:30 7,7 C 96 % 1018,0 hPa 0,0 l/m 2,6 km/h (1 Bft) W 270 7,1 C 7,6 C 2,1 km/h (1 Bft)
11.05.2013 08:35 7,8 C 96 % 1018,0 hPa 0,0 l/m 2,3 km/h (1 Bft) W-NW 292 7,2 C 7,8 C 3,4 km/h (1 Bft)
11.05.2013 08:40 7,7 C 96 % 1018,0 hPa 0,0 l/m 2,7 km/h (1 Bft) W-NW 292 7,1 C 7,8 C 7,1 km/h (2 Bft)
11.05.2013 08:45 7,7 C 96 % 1017,9 hPa 0,0 l/m 3,2 km/h (1 Bft) W 270 7,1 C 7,8 C 2,4 km/h (1 Bft)
11.05.2013 08:50 7,9 C 96 % 1017,9 hPa 0,0 l/m 3,1 km/h (1 Bft) W-NW 292 7,3 C 7,9 C 2,3 km/h (1 Bft)
11.05.2013 08:55 7,8 C 96 % 1017,9 hPa 0,0 l/m 2,9 km/h (1 Bft) W-NW 292 7,2 C 8,0 C 7,4 km/h (2 Bft)
11.05.2013 09:00 7,7 C 96 % 1017,9 hPa 0,0 l/m 3,2 km/h (1 Bft) W-SW 247 7,1 C 7,8 C 2,6 km/h (1 Bft)
11.05.2013 09:05 7,8 C 96 % 1018,2 hPa 0,0 l/m 3,7 km/h (1 Bft) W 270 7,2 C 7,7 C 3,5 km/h (1 Bft)
11.05.2013 09:10 7,7 C 96 % 1018,2 hPa 0,0 l/m 3,4 km/h (1 Bft) W 270 7,1 C 7,8 C 6,4 km/h (2 Bft)
11.05.2013 09:15 7,7 C 96 % 1018,2 hPa 0,0 l/m 3,5 km/h (1 Bft) W-NW 292 7,1 C 7,8 C 2,6 km/h (1 Bft)
11.05.2013 09:20 7,9 C 96 % 1018,2 hPa 0,0 l/m 3,2 km/h (1 Bft) W 270 7,3 C 7,9 C 1,6 km/h (1 Bft)
11.05.2013 09:25 8,0 C 96 % 1018,1 hPa 0,0 l/m 2,3 km/h (1 Bft) W-SW 247 7,4 C 8,1 C 3,9 km/h (1 Bft)
11.05.2013 09:30 7,9 C 96 % 1018,1 hPa 0,0 l/m 2,6 km/h (1 Bft) W 270 7,3 C 8,1 C 6,1 km/h (2 Bft)
11.05.2013 09:35 8,0 C 96 % 1018,1 hPa 0,0 l/m 3,7 km/h (1 Bft) W 270 7,4 C 8,1 C 5,6 km/h (1 Bft)
11.05.2013 09:40 8,1 C 96 % 1018,1 hPa 0,0 l/m 4,2 km/h (1 Bft) S-SW 202 7,5 C 8,0 C 5,1 km/h (1 Bft)
11.05.2013 09:45 8,2 C 96 % 1018,2 hPa 0,0 l/m 3,9 km/h (1 Bft) NW 315 7,6 C 8,2 C 4,5 km/h (1 Bft)
11.05.2013 09:50 8,2 C 96 % 1018,2 hPa 0,0 l/m 3,9 km/h (1 Bft) W 270 7,6 C 8,3 C 2,7 km/h (1 Bft)
11.05.2013 09:55 8,4 C 96 % 1018,2 hPa 0,0 l/m 3,7 km/h (1 Bft) W 270 7,8 C 8,5 C 2,9 km/h (1 Bft)
11.05.2013 10:00 8,3 C 96 % 1018,2 hPa 0,0 l/m 4,2 km/h (1 Bft) S 180 7,7 C 8,4 C 5,8 km/h (2 Bft)
11.05.2013 10:05 8,3 C 96 % 1018,2 hPa 0,0 l/m 4,2 km/h (1 Bft) W 270 7,7 C 8,3 C 6,9 km/h (2 Bft)
11.05.2013 10:10 8,1 C 96 % 1018,2 hPa 0,0 l/m 4,3 km/h (1 Bft) S-SW 202 7,5 C 8,2 C 8,4 km/h (2 Bft)
11.05.2013 10:15 8,1 C 96 % 1018,2 hPa 0,0 l/m 4,8 km/h (1 Bft) W 270 7,5 C 8,0 C 6,3 km/h (2 Bft)
11.05.2013 10:20 8,2 C 96 % 1018,2 hPa 0,0 l/m 4,7 km/h (1 Bft) SW 225 7,6 C 7,9 C 4,3 km/h (1 Bft)
11.05.2013 10:25 8,3 C 96 % 1018,2 hPa 0,7 l/m 4,3 km/h (1 Bft) W-SW 247 7,7 C 8,0 C 6,6 km/h (2 Bft)
11.05.2013 10:30 8,6 C 96 % 1018,2 hPa 0,0 l/m 4,2 km/h (1 Bft) W-SW 247 8,0 C 8,2 C 3,2 km/h (1 Bft)
11.05.2013 10:35 8,6 C 96 % 1018,2 hPa 0,0 l/m 4,5 km/h (1 Bft) W-SW 247 8,0 C 8,2 C 5,6 km/h (1 Bft)
11.05.2013 10:40 8,5 C 96 % 1018,2 hPa 0,0 l/m 4,2 km/h (1 Bft) W-NW 292 7,9 C 8,6 C 3,5 km/h (1 Bft)
11.05.2013 10:45 8,7 C 96 % 1018,3 hPa 0,0 l/m 3,9 km/h (1 Bft) W-SW 247 8,1 C 8,7 C 3,7 km/h (1 Bft)
11.05.2013 10:50 8,8 C 96 % 1018,3 hPa 0,0 l/m 2,9 km/h (1 Bft) W 270 8,2 C 8,9 C 2,9 km/h (1 Bft)
11.05.2013 10:55 9,0 C 96 % 1018,3 hPa 0,0 l/m 2,7 km/h (1 Bft) S-SW 202 8,4 C 9,2 C 3,2 km/h (1 Bft)
11.05.2013 11:00 9,1 C 96 % 1018,3 hPa 0,0 l/m 2,7 km/h (1 Bft) W-NW 292 8,5 C 9,4 C 2,1 km/h (1 Bft)
11.05.2013 11:05 9,1 C 96 % 1018,3 hPa 0,0 l/m 3,1 km/h (1 Bft) W-SW 247 8,5 C 9,4 C 4,0 km/h (1 Bft)
11.05.2013 11:10 8,8 C 96 % 1018,3 hPa 0,0 l/m 4,2 km/h (1 Bft) W-SW 247 8,2 C 9,2 C 4,8 km/h (1 Bft)
11.05.2013 11:15 8,8 C 96 % 1018,3 hPa 0,0 l/m 4,7 km/h (1 Bft) W-SW 247 8,2 C 8,7 C 3,9 km/h (1 Bft)
11.05.2013 11:20 8,9 C 96 % 1018,3 hPa 0,0 l/m 4,0 km/h (1 Bft) SW 225 8,3 C 8,8 C 6,0 km/h (2 Bft)
11.05.2013 11:25 9,0 C 95 % 1018,4 hPa 0,0 l/m 3,5 km/h (1 Bft) W 270 8,2 C 8,9 C 6,1 km/h (2 Bft)
11.05.2013 11:30 9,2 C 95 % 1018,4 hPa 0,0 l/m 4,0 km/h (1 Bft) W-SW 247 8,4 C 9,1 C 6,4 km/h (2 Bft)
11.05.2013 11:35 9,5 C 95 % 1018,4 hPa 0,0 l/m 3,7 km/h (1 Bft) W-SW 247 8,7 C 9,3 C 3,9 km/h (1 Bft)
11.05.2013 11:40 9,8 C 95 % 1018,4 hPa 0,0 l/m 3,9 km/h (1 Bft) SW 225 9,0 C 9,6 C 6,4 km/h (2 Bft)
11.05.2013 11:45 9,9 C 95 % 1018,6 hPa 0,0 l/m 4,0 km/h (1 Bft) W-SW 247 9,1 C 9,8 C 4,8 km/h (1 Bft)
11.05.2013 11:50 9,6 C 95 % 1018,6 hPa 0,0 l/m 4,5 km/h (1 Bft) W 270 8,8 C 9,8 C 8,9 km/h (2 Bft)
11.05.2013 11:55 9,5 C 94 % 1018,6 hPa 0,0 l/m 4,3 km/h (1 Bft) N 360 8,6 C 9,5 C 2,9 km/h (1 Bft)
11.05.2013 12:00 9,2 C 94 % 1018,6 hPa 0,0 l/m 4,5 km/h (1 Bft) W-SW 247 8,3 C 9,4 C 6,4 km/h (2 Bft)
11.05.2013 12:05 9,5 C 94 % 1018,6 hPa 0,0 l/m 4,3 km/h (1 Bft) W-SW 247 8,6 C 9,4 C 5,1 km/h (1 Bft)
11.05.2013 12:10 9,7 C 94 % 1018,6 hPa 0,0 l/m 3,4 km/h (1 Bft) S-SW 202 8,8 C 9,8 C 1,8 km/h (1 Bft)
11.05.2013 12:15 9,7 C 93 % 1018,6 hPa 0,0 l/m 3,1 km/h (1 Bft) W-SW 247 8,6 C 9,9 C 7,6 km/h (2 Bft)
11.05.2013 12:20 9,8 C 93 % 1018,6 hPa 0,0 l/m 4,2 km/h (1 Bft) W 270 8,7 C 10,1 C 6,1 km/h (2 Bft)
11.05.2013 12:25 10,1 C 92 % 1018,7 hPa 0,0 l/m 4,7 km/h (1 Bft) S 180 8,9 C 10,2 C 6,9 km/h (2 Bft)
11.05.2013 12:30 10,5 C 91 % 1018,7 hPa 0,0 l/m 4,2 km/h (1 Bft) W-SW 247 9,1 C 10,9 C 7,7 km/h (2 Bft)
11.05.2013 12:35 10,6 C 91 % 1018,7 hPa 0,0 l/m 3,5 km/h (1 Bft) N 360 9,2 C 11,2 C 4,5 km/h (1 Bft)
11.05.2013 12:40 10,4 C 89 % 1018,7 hPa 0,0 l/m 4,3 km/h (1 Bft) W-NW 292 8,7 C 11,3 C 6,8 km/h (2 Bft)
11.05.2013 12:45 10,7 C 89 % 1018,7 hPa 0,0 l/m 3,9 km/h (1 Bft) S-SW 202 9,0 C 11,4 C 3,7 km/h (1 Bft)
11.05.2013 12:50 10,4 C 89 % 1018,7 hPa 0,0 l/m 3,7 km/h (1 Bft) W 270 8,7 C 11,2 C 6,1 km/h (2 Bft)
11.05.2013 12:55 10,0 C 88 % 1018,7 hPa 0,0 l/m 4,3 km/h (1 Bft) W-SW 247 8,1 C 10,7 C 4,8 km/h (1 Bft)
11.05.2013 13:00 10,0 C 88 % 1018,7 hPa 0,0 l/m 4,0 km/h (1 Bft) W 270 8,1 C 10,4 C 6,1 km/h (2 Bft)
11.05.2013 13:05 9,9 C 89 % 1018,8 hPa 0,0 l/m 3,5 km/h (1 Bft) S 180 8,2 C 10,3 C 3,7 km/h (1 Bft)
11.05.2013 13:10 9,8 C 89 % 1018,8 hPa 0,0 l/m 3,5 km/h (1 Bft) W-SW 247 8,1 C 10,2 C 6,1 km/h (2 Bft)
11.05.2013 13:15 9,7 C 89 % 1018,8 hPa 0,0 l/m 3,5 km/h (1 Bft) S 180 8,0 C 10,1 C 5,1 km/h (1 Bft)
11.05.2013 13:20 9,9 C 89 % 1018,8 hPa 0,0 l/m 3,7 km/h (1 Bft) W-SW 247 8,2 C 9,9 C 4,7 km/h (1 Bft)
11.05.2013 13:25 10,1 C 89 % 1018,7 hPa 0,0 l/m 3,7 km/h (1 Bft) S 180 8,4 C 10,0 C 3,1 km/h (1 Bft)
11.05.2013 13:30 10,0 C 89 % 1018,7 hPa 0,0 l/m 2,9 km/h (1 Bft) W 270 8,3 C 10,1 C 3,1 km/h (1 Bft)
11.05.2013 13:35 10,0 C 90 % 1018,7 hPa 0,0 l/m 2,6 km/h (1 Bft) S-SO 157 8,4 C 10,1 C 5,1 km/h (1 Bft)
11.05.2013 13:40 9,4 C 90 % 1018,7 hPa 0,0 l/m 3,1 km/h (1 Bft) S-SO 157 7,8 C 9,6 C 3,4 km/h (1 Bft)
11.05.2013 13:45 9,6 C 90 % 1018,5 hPa 0,0 l/m 2,7 km/h (1 Bft) SO 135 8,0 C 9,6 C 4,2 km/h (1 Bft)
11.05.2013 13:50 10,3 C 91 % 1018,5 hPa 0,0 l/m 1,9 km/h (1 Bft) S 180 8,9 C 10,1 C 5,8 km/h (2 Bft)
11.05.2013 13:55 10,7 C 91 % 1018,5 hPa 0,0 l/m 2,4 km/h (1 Bft) S-SO 157 9,3 C 10,6 C 6,8 km/h (2 Bft)
11.05.2013 14:00 10,5 C 90 % 1018,5 hPa 0,0 l/m 2,9 km/h (1 Bft) S-SO 157 8,9 C 11,0 C 3,1 km/h (1 Bft)
11.05.2013 14:05 10,3 C 89 % 1018,6 hPa 0,0 l/m 2,7 km/h (1 Bft) S-SO 157 8,6 C 11,2 C 2,9 km/h (1 Bft)
11.05.2013 14:10 10,3 C 89 % 1018,6 hPa 0,0 l/m 1,9 km/h (1 Bft) S 180 8,6 C 11,2 C 2,4 km/h (1 Bft)
11.05.2013 14:15 10,3 C 89 % 1018,6 hPa 0,0 l/m 1,9 km/h (1 Bft) O 90 8,6 C 11,2 C 1,8 km/h (1 Bft)
11.05.2013 14:20 10,0 C 90 % 1018,6 hPa 0,0 l/m 1,0 km/h (0 Bft) S-SW 202 8,4 C 11,1 C 3,1 km/h (1 Bft)
11.05.2013 14:25 9,9 C 90 % 1018,4 hPa 0,0 l/m 1,0 km/h (0 Bft) O-NO 67 8,3 C 10,9 C 3,7 km/h (1 Bft)
11.05.2013 14:30 9,5 C 90 % 1018,4 hPa 0,0 l/m 2,9 km/h (1 Bft) N-NW 337 7,9 C 10,5 C 3,5 km/h (1 Bft)
11.05.2013 14:35 9,6 C 90 % 1018,4 hPa 0,0 l/m 3,5 km/h (1 Bft) N 360 8,0 C 10,3 C 6,1 km/h (2 Bft)
11.05.2013 14:40 9,9 C 90 % 1018,4 hPa 0,0 l/m 2,9 km/h (1 Bft) N 360 8,3 C 10,4 C 3,5 km/h (1 Bft)
11.05.2013 14:45 10,2 C 90 % 1018,4 hPa 0,0 l/m 2,4 km/h (1 Bft) N-NW 337 8,6 C 10,6 C 5,8 km/h (2 Bft)
11.05.2013 14:50 9,7 C 90 % 1018,4 hPa 0,0 l/m 1,3 km/h (1 Bft) S 180 8,1 C 10,2 C 0,0 km/h (0 Bft)
11.05.2013 14:55 9,5 C 91 % 1018,4 hPa 0,0 l/m 1,4 km/h (1 Bft) S 180 8,1 C 10,0 C 3,1 km/h (1 Bft)
11.05.2013 15:00 9,3 C 91 % 1018,4 hPa 0,7 l/m 1,9 km/h (1 Bft) SW 225 7,9 C 9,6 C 2,1 km/h (1 Bft)
11.05.2013 15:05 9,6 C 91 % 1018,4 hPa 0,0 l/m 1,6 km/h (1 Bft) SW 225 8,2 C 9,5 C 0,0 km/h (0 Bft)
11.05.2013 15:10 10,1 C 92 % 1018,4 hPa 0,0 l/m 0,6 km/h (0 Bft) SW 225 8,9 C 10,1 C 3,2 km/h (1 Bft)
11.05.2013 15:15 10,4 C 92 % 1018,4 hPa 0,0 l/m 0,8 km/h (0 Bft) W-SW 247 9,2 C 10,3 C 1,9 km/h (1 Bft)
11.05.2013 15:20 10,8 C 92 % 1018,4 hPa 0,0 l/m 1,6 km/h (1 Bft) S 180 9,6 C 10,9 C 2,3 km/h (1 Bft)
11.05.2013 15:25 11,1 C 91 % 1018,2 hPa 0,0 l/m 1,9 km/h (1 Bft) SO 135 9,7 C 11,6 C 4,2 km/h (1 Bft)
11.05.2013 15:30 10,6 C 91 % 1018,2 hPa 0,0 l/m 3,2 km/h (1 Bft) W-NW 292 9,2 C 11,8 C 6,8 km/h (2 Bft)
11.05.2013 15:35 10,6 C 90 % 1018,2 hPa 0,0 l/m 3,5 km/h (1 Bft) S 180 9,0 C 11,8 C 4,0 km/h (1 Bft)
11.05.2013 15:40 10,6 C 90 % 1018,2 hPa 0,0 l/m 3,1 km/h (1 Bft) S 180 9,0 C 11,6 C 2,9 km/h (1 Bft)
11.05.2013 15:45 10,2 C 90 % 1018,3 hPa 0,0 l/m 3,4 km/h (1 Bft) S 180 8,6 C 11,5 C 4,5 km/h (1 Bft)
11.05.2013 15:50 10,0 C 89 % 1018,3 hPa 0,0 l/m 2,9 km/h (1 Bft) S-SW 202 8,3 C 11,2 C 2,6 km/h (1 Bft)
11.05.2013 15:55 9,9 C 90 % 1018,3 hPa 0,0 l/m 2,6 km/h (1 Bft) S 180 8,3 C 11,0 C 2,7 km/h (1 Bft)
11.05.2013 16:00 9,8 C 90 % 1018,3 hPa 0,0 l/m 2,1 km/h (1 Bft) S 180 8,2 C 10,7 C 0,0 km/h (0 Bft)
11.05.2013 16:05 9,8 C 90 % 1018,2 hPa 0,0 l/m 1,9 km/h (1 Bft) S-SW 202 8,2 C 10,6 C 3,1 km/h (1 Bft)
11.05.2013 16:10 10,0 C 90 % 1018,2 hPa 0,0 l/m 1,0 km/h (0 Bft) S-SW 202 8,4 C 10,6 C 2,3 km/h (1 Bft)
11.05.2013 16:15 10,0 C 90 % 1018,2 hPa 0,0 l/m 1,9 km/h (1 Bft) S-SO 157 8,4 C 10,6 C 2,9 km/h (1 Bft)
11.05.2013 16:20 10,1 C 90 % 1018,2 hPa 0,0 l/m 3,1 km/h (1 Bft) S 180 8,5 C 10,9 C 2,9 km/h (1 Bft)
11.05.2013 16:25 10,1 C 90 % 1018,3 hPa 0,0 l/m 2,9 km/h (1 Bft) S 180 8,5 C 10,9 C 1,9 km/h (1 Bft)
11.05.2013 16:30 10,1 C 90 % 1018,3 hPa 0,0 l/m 1,8 km/h (1 Bft) S 180 8,5 C 11,1 C 1,8 km/h (1 Bft)
11.05.2013 16:35 10,1 C 90 % 1018,3 hPa 0,0 l/m 1,6 km/h (1 Bft) S 180 8,5 C 11,1 C 5,3 km/h (1 Bft)
11.05.2013 16:40 9,9 C 90 % 1018,3 hPa 0,0 l/m 2,6 km/h (1 Bft) S-SO 157 8,3 C 10,9 C 3,2 km/h (1 Bft)
11.05.2013 16:45 9,8 C 90 % 1018,4 hPa 0,0 l/m 3,2 km/h (1 Bft) S 180 8,2 C 10,8 C 2,9 km/h (1 Bft)
11.05.2013 16:50 9,7 C 90 % 1018,4 hPa 0,0 l/m 3,4 km/h (1 Bft) W-SW 247 8,1 C 10,7 C 2,6 km/h (1 Bft)
11.05.2013 16:55 9,7 C 90 % 1018,4 hPa 0,0 l/m 3,1 km/h (1 Bft) S 180 8,1 C 10,6 C 4,3 km/h (1 Bft)
11.05.2013 17:00 9,7 C 90 % 1018,4 hPa 0,0 l/m 2,6 km/h (1 Bft) S 180 8,1 C 10,6 C 3,9 km/h (1 Bft)
11.05.2013 17:05 9,8 C 90 % 1018,4 hPa 0,0 l/m 2,1 km/h (1 Bft) O 90 8,2 C 10,5 C 5,0 km/h (1 Bft)
11.05.2013 17:10 9,7 C 91 % 1018,4 hPa 0,0 l/m 2,4 km/h (1 Bft) S 180 8,3 C 10,3 C 5,5 km/h (1 Bft)
11.05.2013 17:15 9,6 C 91 % 1018,4 hPa 0,0 l/m 3,4 km/h (1 Bft) S 180 8,2 C 10,2 C 4,5 km/h (1 Bft)
11.05.2013 17:20 9,8 C 91 % 1018,4 hPa 0,0 l/m 2,9 km/h (1 Bft) N 360 8,4 C 10,1 C 3,9 km/h (1 Bft)
11.05.2013 17:25 9,9 C 91 % 1018,5 hPa 0,0 l/m 2,1 km/h (1 Bft) SO 135 8,5 C 10,3 C 0,0 km/h (0 Bft)
11.05.2013 17:30 9,8 C 91 % 1018,5 hPa 0,0 l/m 1,8 km/h (1 Bft) S 180 8,4 C 10,4 C 3,7 km/h (1 Bft)
11.05.2013 17:35 9,7 C 91 % 1018,5 hPa 0,0 l/m 1,6 km/h (1 Bft) S-SO 157 8,3 C 10,4 C 0,0 km/h (0 Bft)
11.05.2013 17:40 9,7 C 91 % 1018,5 hPa 0,0 l/m 1,4 km/h (1 Bft) S-SW 202 8,3 C 10,5 C 1,6 km/h (1 Bft)
11.05.2013 17:45 9,7 C 91 % 1018,2 hPa 0,0 l/m 1,0 km/h (0 Bft) S-SO 157 8,3 C 10,4 C 0,0 km/h (0 Bft)
11.05.2013 17:50 9,6 C 91 % 1018,2 hPa 0,0 l/m 0,5 km/h (0 Bft) S 180 8,2 C 10,5 C 0,0 km/h (0 Bft)
11.05.2013 17:55 9,5 C 91 % 1018,2 hPa 0,0 l/m 0,2 km/h (0 Bft) O 90 8,1 C 10,5 C 0,0 km/h (0 Bft)
11.05.2013 18:00 9,5 C 92 % 1018,2 hPa 0,0 l/m 0,8 km/h (0 Bft) S 180 8,3 C 10,6 C 4,3 km/h (1 Bft)
11.05.2013 18:05 9,6 C 91 % 1018,3 hPa 0,0 l/m 1,8 km/h (1 Bft) S 180 8,2 C 10,5 C 3,1 km/h (1 Bft)
11.05.2013 18:10 9,6 C 91 % 1018,3 hPa 0,0 l/m 2,4 km/h (1 Bft) O-NO 67 8,2 C 10,3 C 0,0 km/h (0 Bft)
11.05.2013 18:15 9,4 C 91 % 1018,3 hPa 0,0 l/m 1,3 km/h (1 Bft) O 90 8,0 C 10,3 C 0,0 km/h (0 Bft)
11.05.2013 18:20 9,4 C 92 % 1018,3 hPa 0,0 l/m 0,5 km/h (0 Bft) SO 135 8,2 C 10,3 C 2,1 km/h (1 Bft)
11.05.2013 18:25 9,4 C 92 % 1018,4 hPa 0,0 l/m 1,4 km/h (1 Bft) S 180 8,2 C 10,2 C 2,3 km/h (1 Bft)
11.05.2013 18:30 9,3 C 92 % 1018,4 hPa 0,0 l/m 1,9 km/h (1 Bft) S 180 8,1 C 10,1 C 3,5 km/h (1 Bft)
11.05.2013 18:35 9,0 C 92 % 1018,4 hPa 0,0 l/m 2,1 km/h (1 Bft) O-SO 112 7,8 C 9,9 C 1,9 km/h (1 Bft)
11.05.2013 18:40 8,9 C 92 % 1018,4 hPa 0,0 l/m 2,1 km/h (1 Bft) S-SW 202 7,7 C 9,6 C 4,8 km/h (1 Bft)
11.05.2013 18:45 8,5 C 92 % 1018,4 hPa 0,0 l/m 3,4 km/h (1 Bft) S 180 7,3 C 9,3 C 7,7 km/h (2 Bft)
11.05.2013 18:50 8,1 C 91 % 1018,4 hPa 0,0 l/m 6,1 km/h (2 Bft) W-SW 247 6,7 C 7,9 C 13,5 km/h (3 Bft)
11.05.2013 18:55 7,9 C 91 % 1018,4 hPa 0,0 l/m 6,4 km/h (2 Bft) S 180 6,5 C 7,3 C 10,5 km/h (2 Bft)
11.05.2013 19:00 7,7 C 91 % 1018,4 hPa 0,0 l/m 5,6 km/h (1 Bft) S 180 6,3 C 6,9 C 13,0 km/h (3 Bft)
11.05.2013 19:05 7,6 C 91 % 1018,6 hPa 0,0 l/m 5,5 km/h (1 Bft) S 180 6,2 C 6,7 C 6,0 km/h (2 Bft)
11.05.2013 19:10 7,5 C 91 % 1018,6 hPa 0,0 l/m 5,6 km/h (1 Bft) S 180 6,1 C 6,4 C 3,7 km/h (1 Bft)
11.05.2013 19:15 7,4 C 92 % 1018,6 hPa 0,0 l/m 4,3 km/h (1 Bft) O-SO 112 6,2 C 6,8 C 3,4 km/h (1 Bft)
11.05.2013 19:20 7,3 C 92 % 1018,6 hPa 0,7 l/m 2,9 km/h (1 Bft) O-SO 112 6,1 C 7,0 C 3,1 km/h (1 Bft)
11.05.2013 19:25 7,3 C 92 % 1018,6 hPa 0,0 l/m 1,8 km/h (1 Bft) O-SO 112 6,1 C 7,0 C 0,0 km/h (0 Bft)
11.05.2013 19:30 7,3 C 93 % 1018,6 hPa 0,0 l/m 0,8 km/h (0 Bft) S-SO 157 6,2 C 7,0 C 2,7 km/h (1 Bft)
11.05.2013 19:35 7,3 C 93 % 1018,6 hPa 0,0 l/m 1,0 km/h (0 Bft) S 180 6,2 C 7,0 C 2,1 km/h (1 Bft)
11.05.2013 19:40 7,2 C 93 % 1018,6 hPa 0,0 l/m 2,3 km/h (1 Bft) S 180 6,1 C 6,9 C 2,1 km/h (1 Bft)
11.05.2013 19:45 7,2 C 93 % 1018,5 hPa 0,0 l/m 2,6 km/h (1 Bft) S 180 6,1 C 6,9 C 2,7 km/h (1 Bft)
11.05.2013 19:50 7,2 C 94 % 1018,5 hPa 0,0 l/m 1,8 km/h (1 Bft) O-SO 112 6,3 C 6,9 C 0,0 km/h (0 Bft)
11.05.2013 19:55 7,2 C 94 % 1018,5 hPa 0,0 l/m 1,4 km/h (1 Bft) SO 135 6,3 C 6,9 C 3,4 km/h (1 Bft)
11.05.2013 20:00 7,1 C 94 % 1018,5 hPa 0,0 l/m 2,4 km/h (1 Bft) S-SO 157 6,2 C 6,9 C 3,1 km/h (1 Bft)
11.05.2013 20:05 7,1 C 94 % 1018,5 hPa 0,0 l/m 3,2 km/h (1 Bft) S-SO 157 6,2 C 6,9 C 4,3 km/h (1 Bft)
11.05.2013 20:10 7,1 C 94 % 1018,5 hPa 0,0 l/m 2,6 km/h (1 Bft) NW 315 6,2 C 6,9 C 0,0 km/h (0 Bft)
11.05.2013 20:15 7,1 C 94 % 1018,5 hPa 0,0 l/m 2,6 km/h (1 Bft) S 180 6,2 C 7,0 C 4,7 km/h (1 Bft)
11.05.2013 20:20 7,1 C 94 % 1018,5 hPa 0,0 l/m 2,3 km/h (1 Bft) O 90 6,2 C 7,0 C 0,0 km/h (0 Bft)
11.05.2013 20:25 7,0 C 94 % 1018,4 hPa 0,0 l/m 1,8 km/h (1 Bft) S 180 6,1 C 7,0 C 0,0 km/h (0 Bft)
11.05.2013 20:30 7,0 C 94 % 1018,4 hPa 0,0 l/m 0,6 km/h (0 Bft) S-SO 157 6,1 C 6,9 C 0,0 km/h (0 Bft)
11.05.2013 20:35 7,0 C 94 % 1018,4 hPa 0,0 l/m 0,8 km/h (0 Bft) SO 135 6,1 C 6,9 C 0,0 km/h (0 Bft)
11.05.2013 20:40 6,9 C 95 % 1018,4 hPa 0,0 l/m 0,3 km/h (0 Bft) NO 45 6,2 C 6,9 C 1,9 km/h (1 Bft)
11.05.2013 20:45 6,8 C 95 % 1018,7 hPa 0,0 l/m 0,2 km/h (0 Bft) N-NO 22 6,1 C 6,8 C 0,0 km/h (0 Bft)
11.05.2013 20:50 6,7 C 95 % 1018,7 hPa 0,0 l/m 0,2 km/h (0 Bft) N-NW 337 6,0 C 6,6 C 0,0 km/h (0 Bft)
11.05.2013 20:55 6,7 C 95 % 1018,7 hPa 0,0 l/m 0,2 km/h (0 Bft) O 90 6,0 C 6,6 C 0,0 km/h (0 Bft)
11.05.2013 21:00 6,5 C 95 % 1018,7 hPa 0,0 l/m 0,5 km/h (0 Bft) NW 315 5,8 C 6,5 C 0,0 km/h (0 Bft)
11.05.2013 21:05 6,5 C 95 % 1018,3 hPa 0,0 l/m 0,8 km/h (0 Bft) NO 45 5,8 C 6,3 C 1,9 km/h (1 Bft)
11.05.2013 21:10 6,4 C 95 % 1018,3 hPa 0,0 l/m 1,1 km/h (1 Bft) NO 45 5,7 C 6,3 C 2,4 km/h (1 Bft)
11.05.2013 21:15 6,5 C 95 % 1018,3 hPa 0,0 l/m 1,0 km/h (0 Bft) NO 45 5,8 C 6,3 C 1,6 km/h (1 Bft)
11.05.2013 21:20 6,5 C 95 % 1018,3 hPa 0,0 l/m 0,5 km/h (0 Bft) O-NO 67 5,8 C 6,3 C 0,0 km/h (0 Bft)
11.05.2013 21:25 6,5 C 95 % 1018,5 hPa 0,0 l/m 0,3 km/h (0 Bft) NO 45 5,8 C 6,3 C 0,0 km/h (0 Bft)
11.05.2013 21:30 6,4 C 95 % 1018,5 hPa 0,0 l/m 0,0 km/h (0 Bft) S 180 5,7 C 6,2 C 0,0 km/h (0 Bft)
11.05.2013 21:35 6,5 C 95 % 1018,5 hPa 0,0 l/m 0,0 km/h (0 Bft) O-NO 67 5,8 C 6,2 C 0,0 km/h (0 Bft)
11.05.2013 21:40 6,5 C 95 % 1018,5 hPa 0,0 l/m 0,2 km/h (0 Bft) S 180 5,8 C 6,3 C 0,0 km/h (0 Bft)
11.05.2013 21:45 6,7 C 95 % 1018,6 hPa 0,0 l/m 0,5 km/h (0 Bft) NO 45 6,0 C 6,3 C 0,0 km/h (0 Bft)
11.05.2013 21:50 6,8 C 96 % 1018,6 hPa 0,0 l/m 0,5 km/h (0 Bft) O 90 6,2 C 6,4 C 0,0 km/h (0 Bft)
11.05.2013 21:55 6,7 C 96 % 1018,6 hPa 0,0 l/m 0,6 km/h (0 Bft) O-SO 112 6,1 C 6,5 C 0,0 km/h (0 Bft)
11.05.2013 22:00 6,7 C 96 % 1018,6 hPa 0,0 l/m 0,5 km/h (0 Bft) S 180 6,1 C 6,5 C 0,0 km/h (0 Bft)
11.05.2013 22:05 6,6 C 96 % 1018,7 hPa 0,0 l/m 0,5 km/h (0 Bft) O 90 6,0 C 6,5 C 0,0 km/h (0 Bft)
11.05.2013 22:10 6,6 C 96 % 1018,7 hPa 0,0 l/m 0,5 km/h (0 Bft) NO 45 6,0 C 6,5 C 1,9 km/h (1 Bft)
11.05.2013 22:15 6,6 C 96 % 1018,7 hPa 0,0 l/m 0,5 km/h (0 Bft) NO 45 6,0 C 6,5 C 2,3 km/h (1 Bft)
11.05.2013 22:20 6,5 C 96 % 1018,7 hPa 0,0 l/m 0,8 km/h (0 Bft) NW 315 5,9 C 6,5 C 0,0 km/h (0 Bft)
11.05.2013 22:25 6,6 C 96 % 1018,6 hPa 0,0 l/m 0,8 km/h (0 Bft) S-SW 202 6,0 C 6,5 C 2,6 km/h (1 Bft)
11.05.2013 22:30 6,6 C 96 % 1018,6 hPa 0,0 l/m 1,0 km/h (0 Bft) N 360 6,0 C 6,6 C 0,0 km/h (0 Bft)
11.05.2013 22:35 6,6 C 96 % 1018,6 hPa 0,0 l/m 1,1 km/h (1 Bft) NO 45 6,0 C 6,5 C 2,3 km/h (1 Bft)
11.05.2013 22:40 6,5 C 96 % 1018,6 hPa 0,0 l/m 0,6 km/h (0 Bft) O-SO 112 5,9 C 6,5 C 0,0 km/h (0 Bft)
11.05.2013 22:45 6,5 C 96 % 1018,7 hPa 0,0 l/m 0,6 km/h (0 Bft) NO 45 5,9 C 6,4 C 0,0 km/h (0 Bft)
11.05.2013 22:50 6,4 C 96 % 1018,7 hPa 0,0 l/m 0,3 km/h (0 Bft) N-NW 337 5,8 C 6,3 C 0,0 km/h (0 Bft)
11.05.2013 22:55 6,4 C 96 % 1018,7 hPa 0,0 l/m 0,2 km/h (0 Bft) NO 45 5,8 C 6,3 C 0,0 km/h (0 Bft)
11.05.2013 23:00 6,4 C 96 % 1018,7 hPa 0,0 l/m 0,3 km/h (0 Bft) S-SW 202 5,8 C 6,3 C 0,0 km/h (0 Bft)
11.05.2013 23:05 6,5 C 96 % 1018,8 hPa 0,0 l/m 0,3 km/h (0 Bft) N 360 5,9 C 6,3 C 0,0 km/h (0 Bft)
11.05.2013 23:10 6,5 C 96 % 1018,8 hPa 0,0 l/m 0,2 km/h (0 Bft) SW 225 5,9 C 6,3 C 1,6 km/h (1 Bft)
11.05.2013 23:15 6,6 C 96 % 1018,8 hPa 0,0 l/m 0,5 km/h (0 Bft) S-SO 157 6,0 C 6,3 C 0,0 km/h (0 Bft)
11.05.2013 23:20 6,6 C 96 % 1018,8 hPa 0,0 l/m 1,6 km/h (1 Bft) S-SO 157 6,0 C 6,5 C 4,5 km/h (1 Bft)
11.05.2013 23:25 6,7 C 96 % 1019,1 hPa 0,0 l/m 2,6 km/h (1 Bft) SO 135 6,1 C 6,6 C 3,4 km/h (1 Bft)
11.05.2013 23:30 6,7 C 96 % 1019,1 hPa 0,0 l/m 5,3 km/h (1 Bft) SO 135 6,1 C 6,0 C 8,4 km/h (2 Bft)
11.05.2013 23:35 6,7 C 96 % 1019,1 hPa 0,0 l/m 5,6 km/h (1 Bft) O 90 6,1 C 5,9 C 7,4 km/h (2 Bft)
11.05.2013 23:40 6,7 C 96 % 1019,1 hPa 0,0 l/m 5,1 km/h (1 Bft) S 180 6,1 C 6,1 C 5,8 km/h (2 Bft)
11.05.2013 23:45 6,7 C 96 % 1018,8 hPa 0,0 l/m 5,6 km/h (1 Bft) SO 135 6,1 C 6,0 C 5,8 km/h (2 Bft)
11.05.2013 23:50 6,7 C 96 % 1018,8 hPa 0,0 l/m 4,8 km/h (1 Bft) O-SO 112 6,1 C 6,3 C 6,6 km/h (2 Bft)
11.05.2013 23:55 6,7 C 96 % 1018,8 hPa 0,0 l/m 3,1 km/h (1 Bft) S 180 6,1 C 6,8 C 0,0 km/h (0 Bft)
_ Min-Zeit 23:00 13:00 06:20 - 21:35 - - 21:30 23:35 23:55
Minimum _ 6,4 C 88 % 1017,2 hPa - 0,0 km/h (0 Bft) - - 5,7 C 5,9 C 0,0 km/h (0 Bft)
_ Max-Zeit 15:25 23:55 00:00 19:20 18:55 - - 15:25 15:35 18:50
Maximum _ 11,1 C 96 % 1019,8 hPa 0,7 l/m 6,4 km/h
S (2 Bft)
- - 9,7 C 11,8 C 13,5 km/h
W-SW (3 Bft)
Durchschnitt _ 8,0 C 94 % 1018,4 hPa #2,7 l/m 1,8 km/h (1 Bft) S - 7,1 C 8,1 C 2,5 km/h (1 Bft)